Regional Weather Roundup
Issued by NWS Memphis, TN

Current Version | Previous Version | Text Only | Print | Product List | Glossary On
Versions: 1 2 3 4 5 6 7 8 9 10 11 12 13 14 15 16 17 18 19 20 21 22 23 24 25 26 27 28 29 30 31 32 33 34 35 36 37 38 39 40 41 42 43 44 45 46 47 48 49 50
000
ASUS44 KMEG 250010
RWRMEG
MEMPHIS CWA HOURLY WEATHER ROUNDUP
NATIONAL WEATHER SERVICE MEMPHIS TN
700 PM CDT SUN MAY 24 2015

...WEST TENNESSEE...

CITY           SKY/WX    TMP DP  RH WIND       PRES   REMARKS
MEMPHIS INTL   CLOUDY    74  69  85 S7        29.98F
6HR MIN TEMP:  71; 6HR MAX TEMP:  87; 6HR PCP:  0.19;

NWS MEMPHIS      N/A     73 N/A N/A MISG        N/A
JACKSON        LGT RAIN  74  70  87 S13       30.02R FOG
6HR MIN TEMP:  74; 6HR MAX TEMP:  85; 6HR PCP:  0.08;

LEXINGTON      PTCLDY    79  66  65 S9        30.05R
DYERSBURG      PTSUNNY   82  57  42 S8G18     29.97R
6HR MIN TEMP:  81; 6HR MAX TEMP:  86;

PARIS          SUNNY     75  70  83 SE6       30.03S


...EASTERN ARKANSAS...

CITY           SKY/WX    TMP DP  RH WIND       PRES   REMARKS
JONESBORO      CLOUDY    76  70  82 S15       29.92R
6HR MIN TEMP:  75; 6HR MAX TEMP:  85; 6HR PCP: TRACE;

WEST MEMPHIS   CLOUDY    70  69  97 SE8       29.95F
6HR MIN TEMP:  69; 6HR MAX TEMP:  85; 6HR PCP:  0.18;

BATESVILLE     CLOUDY    68  64  88 SE5       29.90S
6HR MIN TEMP:  68; 6HR MAX TEMP:  84; 6HR PCP:  0.37;

NEWPORT        CLOUDY    72  69  90 S13       29.94R
6HR MIN TEMP:  70; 6HR MAX TEMP:  86; 6HR PCP:  0.16;

WALNUT RIDGE     N/A    N/A N/A N/A MISG        N/A  THUNDER
6HR MIN TEMP:  81; 6HR MAX TEMP:  84;

BLYTHEVILLE    PTSUNNY   83  68  60 S17G29    29.96R
6HR MIN TEMP:  83; 6HR MAX TEMP:  86;

SEARCY         CLOUDY    71  67  87 S9        29.92F
6HR MIN TEMP:  68; 6HR MAX TEMP:  84; 6HR PCP:  0.31;

STUTTGART      CLOUDY    73  66  78 MISG      29.93R
6HR MIN TEMP:  72; 6HR MAX TEMP:  88; 6HR PCP:  0.05;

PINE BLUFF     CLOUDY    73  69  87 S7        29.93R
6HR MIN TEMP:  69; 6HR MAX TEMP:  85; 6HR PCP:  0.15;

MONTICELLO     CLOUDY    74  72  93 S3        29.94R
6HR MIN TEMP:  71; 6HR MAX TEMP:  85; 6HR PCP:  0.27;



...NORTH MISSISSIPPI...

CITY           SKY/WX    TMP DP  RH WIND       PRES   REMARKS
TUPELO         CLOUDY    71  66  84 S7        30.05S
6HR MIN TEMP:  69; 6HR MAX TEMP:  87; 6HR PCP:  0.68;

OXFORD         CLOUDY    72  68  88 SE10G18   30.03R
OLIVE BRANCH   PTSUNNY   73  73 100 SE9       30.00R
TUNICA           N/A     72  68  88 SE10      29.97F
CLARKSDALE       N/A     72  72 100 CALM      30.01R
CORINTH        LGT RAIN  70  66  88 SE9       30.06S
GREENWOOD      CLOUDY    72  67  84 S7        30.00R
6HR MIN TEMP:  70; 6HR MAX TEMP:  87; 6HR PCP:  0.29;

COLUMBUS       CLOUDY    73  73 100 SE8       30.07R
6HR MIN TEMP:  70; 6HR MAX TEMP:  91; 6HR PCP:  0.11;

STARKVILLE     FAIR      73  70  88 SE9G17    30.05S
GOLDEN TRIANGL MOCLDY    73  68  83 SE13G21   30.06R


...SOUTHEAST MISSOURI...

CITY           SKY/WX    TMP DP  RH WIND       PRES   REMARKS
WEST PLAINS    LGT RAIN  70  66  87 S13G20    29.92R
6HR MIN TEMP:  69; 6HR MAX TEMP:  79; 6HR PCP:  0.21;

POPLAR BLUFF   PTSUNNY   80  66  62 S13G22    29.90F
6HR MIN TEMP:  80; 6HR MAX TEMP:  84;

CAPE GIRARDEAU PTSUNNY   80  66  62 SE18G25   29.93F
6HR MIN TEMP:  80; 6HR MAX TEMP:  85;



...NORTHWEST ALABAMA...

CITY           SKY/WX    TMP DP  RH WIND       PRES   REMARKS
MUSCLE SHOALS  LGT RAIN  73  69  87 S13       30.11R
6HR MIN TEMP:  71; 6HR MAX TEMP:  85; 6HR PCP:  0.08;



...MIDDLE TENNESSEE...

CITY           SKY/WX    TMP DP  RH WIND       PRES   REMARKS
NASHVILLE      MOCLDY    80  64  58 S12G24    30.10S
6HR MIN TEMP:  80; 6HR MAX TEMP:  86;

CLARKSVILLE    MOCLDY    80  65  59 S13G23    30.05S
6HR MIN TEMP:  80; 6HR MAX TEMP:  84;

COLUMBIA       CLEAR     79  66  65 S7        30.09S


...WESTERN KENTUCKY...

CITY           SKY/WX    TMP DP  RH WIND       PRES   REMARKS
PADUCAH        CLOUDY    81  66  60 SE10      29.98S
6HR MIN TEMP:  81; 6HR MAX TEMP:  86; 6HR PCP: TRACE;

FORT CAMPBELL  MOCLDY    82  66  58 SE15      30.04F
6HR MIN TEMP:  82; 6HR MAX TEMP:  85; 6HR PCP: TRACE;



...CENTRAL ARKANSAS...

CITY           SKY/WX    TMP DP  RH WIND       PRES   REMARKS
LITTLE ROCK    CLOUDY    73  67  81 S10       29.91R
6HR MIN TEMP:  71; 6HR MAX TEMP:  86; 6HR PCP:  0.10;



SKY/WX REPORTED AS FAIR MEANS FEW OR NO CLOUDS BELOW
12 THOUSAND FEET.




USA.gov is the U.S. government's official web portal to all federal, state and local government web resources and services.